Home   Weather   43°11'N, 78°39'W   Past weeks
Flag for USA

Past Weather in 43°11'N, 78°39'W, USA — Yesterday and Last 2 Weeks

Now
79 °F

Passing clouds.


Feels Like: 82 °F
Forecast: 82 / 73 °F
Wind: 14 mph from Southwest

Location: Greater Buffalo International Airport

Current Time: Jul 19, 2019 at 8:53:20 am

Latest Report: Jul 19, 2019 at 7:54 am


Visibility: 10 mi

Pressure: 29.83 "Hg

Humidity: 77%

Dew Point: 71 °F

Location of 43°11'N, 78°39'WLocation

Past Weather in 43°11'N, 78°39'W — Graph

°F

43°11'N, 78°39'W Temperature Yesterday

Maximum temperature yesterday: 84 °F (at 2:54 pm)
Minimum temperature yesterday: 71 °F (at 2:54 am)
Average temperature yesterday: 76 °F

High & Low Weather Summary for the Past Weeks

 TemperatureHumidityPressure
High89 °F (Jul 10, 2:54 pm)94% (Jul 6, 12:08 pm)30.13 "Hg (Jul 6, 12:08 pm)
Low56 °F (Jul 9, 4:54 am)31% (Jul 9, 4:54 pm)29.72 "Hg (Jul 11, 4:54 pm)
Average74 °F69%29.96 "Hg
* Reported Jul 4 6:54 am — Jul 19 6:54 am, 43°11'N, 78°39'W. Weather by CustomWeather, © 2019

Note: Actual official high and low records may vary slightly from our data, if they occured in-between our weather recording intervals... More about our weather records

Advertising

43°11'N, 78°39'W Weather History for the Previous 24 Hours

Scroll right to see more
 ConditionsComfort  
Time TempWeatherWind HumidityBarometerVisibility
6:54 am
Fri, Jul 19
78 °FPassing clouds.14 mph79%29.82 "Hg10 mi
5:54 am78 °FSunny.14 mph79%29.81 "Hg10 mi
4:54 am78 °FClear.14 mph76%29.80 "Hg10 mi
3:54 am78 °FClear.14 mph74%29.80 "Hg10 mi
2:54 am79 °FClear.14 mph72%29.82 "Hg10 mi
1:54 am75 °FPassing clouds.7 mph79%29.83 "Hg10 mi
12:54 am75 °FPassing clouds.8 mph79%29.83 "Hg10 mi
11:54 pm
Thu, Jul 18
75 °FPassing clouds.8 mph82%29.84 "Hg10 mi
10:54 pm76 °FPassing clouds.6 mph77%29.86 "Hg10 mi
9:54 pm78 °FPassing clouds.5 mph71%29.86 "Hg10 mi
8:54 pm79 °FPassing clouds.6 mph67%29.84 "Hg10 mi
7:54 pm81 °FScattered clouds.6 mph60%29.83 "Hg10 mi
6:54 pm81 °FScattered clouds.10 mph62%29.84 "Hg10 mi
5:54 pm83 °FScattered clouds.8 mph61%29.85 "Hg10 mi
4:54 pm84 °FScattered clouds.10 mph59%29.88 "Hg10 mi
3:54 pm84 °FPassing clouds.12 mph59%29.90 "Hg10 mi
2:54 pm84 °FScattered clouds.7 mph57%29.91 "Hg10 mi
1:54 pm82 °FBroken clouds.8 mph63%29.91 "Hg10 mi
12:54 pm82 °FScattered clouds.No wind63%29.90 "Hg10 mi
12:23 pm80 °FPartly sunny.5 mph67%29.93 "Hg10 mi
11:54 am80 °FBroken clouds.3 mph67%29.93 "Hg10 mi
11:16 am77 °FScattered clouds.5 mph77%29.94 "Hg10 mi
10:54 am76 °FPartly sunny.3 mph80%29.94 "Hg10 mi
10:23 am75 °FPartly sunny.6 mph79%29.96 "Hg10 mi
9:54 am74 °FLow clouds.5 mph82%29.96 "Hg10 mi
8:54 am72 °FLow clouds.7 mph87%29.94 "Hg7 mi
Weather by CustomWeather, © 2019

See weather overview